Regional Weather Roundup
Issued by NWS

Home | Current Version | Previous Version | Graphics & Text | Print | Product List | Glossary On
Versions: 1 2 3 4 5 6 7 8 9 10 11 12 13 14 15 16 17 18 19 20 21 22 23 24 25 26 27 28 29 30 31 32 33 34 35 36 37 38 39 40 41 42 43 44 45 46 47 48 49 50
252
ASUS43 KLSX 171157
RWRMO

WEATHER SUMMARY FOR MISSOURI
NATIONAL WEATHER SERVICE SPRINGFIELD MO
700 AM CDT TUE OCT 17 2017

NOTE: "FAIR" INDICATES FEW OR NO CLOUDS BELOW 12,000 FEET WITH NO
       SIGNIFICANT WEATHER AND/OR OBSTRUCTIONS TO VISIBILITY.
       CURRENT SKY AND/OR WEATHER CONDITIONS ARE NOT AVAILABLE FOR
       CHILLICOTHE AND FARMINGTON.

MOZ001>031-035>038-043-044-053-054-171300-
...NORTHERN AND WESTERN MISSOURI...

CITY           SKY/WX    TMP DP  RH WIND       PRES   REMARKS
KANSAS CTY INT PTCLDY    44  39  82 S9        30.21R
6HR MIN TEMP:  44; 6HR MAX TEMP:  53;

LEE`S SUMMIT   PTCLDY    49  41  74 S10       30.23S
6HR MIN TEMP:  49; 6HR MAX TEMP:  54;

ST JOSEPH      CLEAR     44  41  89 S3        30.19S
6HR MIN TEMP:  43; 6HR MAX TEMP:  53;

CHILLICOTHE      N/A     48  42  80 S5        30.23S
6HR MIN TEMP:  46; 6HR MAX TEMP:  51;


$$
MOZ066>068-077>081-088>096-101>105-171300-
...SOUTHWEST MISSOURI...

CITY           SKY/WX    TMP DP  RH WIND       PRES   REMARKS
SPRINGFIELD    PTCLDY    45  41  86 S9        30.29R
6HR MIN TEMP:  43; 6HR MAX TEMP:  47;

JOPLIN         CLOUDY    47  43  86 S9        30.27F
6HR MIN TEMP:  42; 6HR MAX TEMP:  47;

BRANSON        MOCLDY    45  39  81 CALM      30.32R

$$
MOZ032>034-039>042-045>050-055>058-069>072-171300-
...CENTRAL MISSOURI...

CITY           SKY/WX    TMP DP  RH WIND       PRES   REMARKS
COLUMBIA       NOT AVBL
JEFFERSON CITY CLOUDY    43  39  86 SE5       30.29S
6HR MIN TEMP:  41; 6HR MAX TEMP:  46;

ROLLA          CLOUDY    47  39  74 S10       30.31S
6HR MIN TEMP:  43; 6HR MAX TEMP:  48; 6HR PCP: TRACE;

SEDALIA        PTCLDY    45  41  86 S7        30.27R
6HR MIN TEMP:  44; 6HR MAX TEMP:  50;

WARRENSBURG    CLEAR     45  39  81 S6        30.24S

$$
MOZ051-052-059>065-171300-
...EAST CENTRAL MISSOURI...

CITY           SKY/WX    TMP DP  RH WIND       PRES   REMARKS
ST LOUIS INTL  MOCLDY    50  38  63 S7        30.32R
6HR MIN TEMP:  49; 6HR MAX TEMP:  53;


$$
MOZ072>076-082>087-097>100-106>115-171300-
...SOUTH CENTRAL AND SOUTHEAST MISSOURI...

CITY           SKY/WX    TMP DP  RH WIND       PRES   REMARKS
CAPE GIRARDEAU FOG       33  32  96 CALM      30.36R VSB 1/2
6HR MIN TEMP:  33; 6HR MAX TEMP:  40;

POPLAR BLUFF   CLEAR     36  35  96 NW3       30.35S
6HR MIN TEMP:  36; 6HR MAX TEMP:  41;

WEST PLAINS    PTCLDY    41  36  82 S3        30.34R
6HR MIN TEMP:  37; 6HR MAX TEMP:  43;


$$



USA.gov is the U.S. government's official web portal to all federal, state and local government web resources and services.